www.pogodaiklimat.ru

Погода и климат >> Архив погоды >> Россия >> Камчатский край >> Эссо


АРХИВ ПОГОДЫ в Эссо

Время (UTC), дата Ветер
(напр.,м/с)
 
Видим.   Явления Облачность Т
(С)
Тd
(С)
f
(%)
Тe
(С)
Тes
(С)
Комфортность P
(гПа)
Po
(гПа)
Тmin
(С)
Tmax
(С)
R
(мм)
R24
(мм)
S
(см)
18 11.01 штиль 0 4000 м слаб. ливневой снег 10/10 300 м
[Cb cap]
-7.1 -8.7 88 -8 -8 997.9 938.5
21 11.01 Ю 1 10 км слаб. ливневой снег 10/10 300 м
[Cb cap]
-5.8 -7.1 91 -8 -8 998.9 939.7 -11.4 3 63
00 12.01 СВ 4 20 км {ливн. осадки} 10/8 600 м
[Sc Ac trans]
-4.1 -8.1 74 -10 -10 999.8 940.9
03 12.01 СВ 2 20 км 10/10 1000 м
[Sc]
-4.1 -10.3 62 -8 -8 1000.4 941.4
06 12.01 штиль 0 20 км 10/10 1000 м
[Sc]
-6.0 -10.8 69 -7 -7 1002.5 943.0
09 12.01 СЗ 1
{9}
20 км 8/8 1000 м
[Sc]
-5.0 -11.8 59 -7 -7 1003.7 944.4 -3.6 0.0
12 12.01 С 3
{11}
20 км 3/3 1000 м
[Sc]
-4.6 -13.0 52 -9 -9 1005.0 945.7
15 12.01 В 1 н/о 1/1 1000 м
[Sc]
-6.5 -13.2 59 -8 -8 1007.0 947.2
18 12.01 ЮЗ 1 20 км 1/1 1000 м
[Sc]
-14.7 -16.7 85 -17 -17 1010.5 948.6
21 12.01 З 1
{11}
20 км ясно -18.5 -20.7 83 -21 -21 1012.8 949.9 -19.3 59
00 13.01 ЮЗ 1 50 км 3/1 1000 м
[Sc Cs]
-14.6 -17.8 77 -17 -16 1012.8 950.8 -20.8
03 13.01 штиль 0 50 км 8/0
[Ci sp]
-9.4 -16.5 56 -10 -9 1010.6 949.9
06 13.01 ЮЗ 1 20 км ясно -16.6 -19.8 76 -19 -19 1013.1 950.6
09 13.01 ЮЗ 2
{3}
20 км ясно -19.7 -22.6 78 -25 -25 1014.6 951.3 -9.2
12 13.01 ЮЗ 1 20 км ясно -23.0 -26.3 74 -26 -26 1015.9 951.7
15 13.01 ЮЗ 1 20 км ясно -24.4 -27.7 74 -28 -28 1016.4 951.8
18 13.01 ЮЗ 1 20 км ясно -26.0 -29.5 72 -30 -30 1016.9 951.8
21 13.01 ЮЗ 2
{4}
ясно 74 952.0
00 14.01 ЮЗ 2 ясно 76 952.0
03 14.01 ЮЗ 1 ясно 76 950.7
06 14.01 ЮЗ 1 9 баллов 77 950.7
09 14.01 штиль 0
{4}
20 км 10 баллов -16.5 -19.1 80 -17 -17 1014.6 952.0 -11.7
12 14.01 З 1 7 баллов 81 952.0
15 14.01 ЮЗ 1 20 км 9 баллов -20.9 -23.7 78 -24 -24 1017.1 953.3
18 14.01 ЮЗ 1 10 баллов 75 953.3
21 14.01 Ю 2
{4}
20 км 10 баллов -17.4 -20.7 75 -23 -23 1017.7 954.7 -21.8
00 15.01 Ю 2 20 км слаб. ливневой снег 10 баллов -15.9 -19.9 71 -21 -21 1018.7 956.0
03 15.01 Ю 2 8 баллов 71 954.7
06 15.01 Ю 2 8 баллов 73 954.7
09 15.01 Ю 2
{5}
7 баллов 76 956.0 0.0
12 15.01 Ю 2 5 баллов 74 957.3
15 15.01 Ю 2 н/о 69 957.3
18 15.01 ЮЗ 3 ясно 69 958.7
21 15.01 ЮЗ 2
{6}
ясно 68 958.7
00 16.01 ЮЗ 2 50 км ясно -24.9 -28.9 69 -32 -31 опасность
обморожения
1023.9 958.7
03 16.01 Ю 2 ясно 54 956.0
06 16.01 ЮЗ 1 20 км 4 балла -26.8 -29.9 75 -31 -31 опасность
обморожения
1021.6 956.0
09 16.01 Ю 1
{6}
20 км 6 баллов -28.9 -32.8 69 -33 -33 опасность
обморожения
1020.7 954.7 -19.3
12 16.01 Ю 1 20 км 10 баллов -28.9 -32.9 68 -33 -33 опасность
обморожения
1019.3 953.3
15 16.01 штиль 0 20 км 10 баллов -27.6 -31.4 70 -28 -28 1017.5 952.0
18 16.01 В 1 5 баллов 71 948.0
21 16.01 штиль 0
{5}
20 км 9 баллов -22.2 -25.4 75 -22 -22 1008.9 945.3 -30.0
00 17.01 СВ 1 20 км 10 баллов -19.1 -22.2 76 -22 -22 1006.7 944.0
03 17.01 СВ 1 20 км 10 баллов -16.6 -20.8 70 -19 -19 1001.8 940.0
06 17.01 СВ 2 20 км 7 баллов -16.5 -20.3 72 -22 -22 998.9 937.3
09 17.01 штиль 0
{5}
20 км 7 баллов -15.6 -19.6 71 -16 -16 997.3 936.0 -14.6
12 17.01 штиль 0 20 км слаб. ливневой снег 10 баллов -14.3 -17.7 75 -14 -14 997.0 936.0
15 17.01 СВ 2 10 км слаб. ливневой снег 10 баллов -17.1 -19.9 79 -22 -22 1000.5 938.7
18 17.01 СВ 2 10 км слаб. ливневой снег 10 баллов -17.7 -20.4 79 -23 -23 1002.1 940.0
21 17.01 штиль 0
{6}
20 км ясно -20.1 -22.9 78 -20 -20 1004.1 941.3 -20.1 4
00 18.01 ЮЗ 2 50 км ясно -19.7 -23.1 74 -25 -25 1004.0 941.3
03 18.01 З 1 ясно 71 940.0
06 18.01 ЮЗ 1 50 км ясно -23.1 -26.4 74 -26 -26 1004.9 941.3
09 18.01 ЮЗ 1
{3}
9 баллов 73 940.0
12 18.01 З 1 ясно 70 940.0
15 18.01 ЮЗ 1 20 км 7 баллов -29.4 -33.4 68 -33 -33 опасность
обморожения
1006.6 941.3

 

Местоположение метеостанции Эссо (Камчатский край, Россия): широта 55.93 долгота 158.70 высота над уровнем моря 481 м.

В архиве по умолчанию представлена погода в Эссо за последнюю неделю. Архивные данные за месяц целиком и за предыдущие месяцы, начиная с января 2011 года, Вы можете получить, выбрав интересующий диапазон дат из раскрывающегося списка и нажав кнопку "Ввод!".


*Определитесь, кто Вы:
робот инопланетянин человек

Внимание! Время в таблицах - всемирное. Для получения местного времени необходимо прибавить поправку, которая равна 12 ч.

Смотрите также архив погоды в соседних городах и на ближайших метеорологических станциях:

Погода в Козыревске (Камчатский край, Россия) (70 км)
Погода в Долиновке (Камчатский край, Россия) (92 км)
Погода в Ключах (Камчатский край, Россия) (137 км)
Погода в Мильково (Камчатский край, Россия) (140 км)
Погода в Усть-Хайрюзово (Камчатский край, Россия) (177 км)
Погода в Пущино (Камчатский край, Россия) (200 км)
Погода в Тигиле (Камчатский край, Россия) (203 км)
Погода в Иче (Камчатский край, Россия) (204 км)
Погода в Семячике (Камчатский край, Россия) (215 км)
Погода в Усть-Камчатске (Камчатский край, Россия) (250 км)

Пояснения к столбцам:

Ветер - указаны скорость ветра в м/с - средняя за 10 мин, порывы в срок и между сроками (в фигурных скобках) и направление, откуда дует ветер: С - северный, СВ - северо-восточный, В - восточный, ЮВ - юго-восточный, Ю - южный, ЮЗ - юго-западный, З - западный, СЗ - северо-западный.
Видимость - горизонтальная дальность видимости в метрах или километрах. При видимости от 1 до 10 км при отсутствии осадков обычно наблюдается дымка, при ухудшении видимости до 1 км и менее - туман. В сухую погоду видимость может ухудшаться дымом, пылью или мглою.
Явления - указаны атмосферные явления, наблюдавшиеся в срок или в последний час перед сроком; фигурными скобками обозначены явления, наблюдавшиеся между сроками (за 1-3 часа до срока); квадратными скобками обозначены град или гололедные отложения с указанием их диаметра в мм.
Облачность - указаны через наклонную черту общая и нижняя облачность в баллах и высота нижней границы облаков в метрах; квадратными скобками обозначены формы облаков: Ci - перистые, Cs - перисто-слоистые, Cc - перисто-кучевые, Ac - высококучевые, As - высокослоистые, Sc - слоисто-кучевые, Ns - слоисто-дождевые, Cu - кучевые, Cb - кучево-дождевые. Подробнее классификацию облаков см. в Атласе облаков (PDF).
T - Температура воздуха - температура, измеренная на высоте 2 м над землей.
Td - Температура точки росы - температура, при понижении до которой содержащийся в воздухе водяной пар достигнет насыщения.
f - Относительная влажность воздуха - влажноcть воздуха, измеренная на высоте 2 м над землей.
Te - Эффективная температура - температура, которую ощущает одетый по сезону человек в тени. Характеристика душности погоды. При расчете учитывается влияние влажности воздуха и скорости ветра на теплоощущения человека.
Tes - Эффективная температура на солнце - температура, которую ощущает человек, с поправкой на солнечный нагрев. Характеристика знойности погоды. Зависит от высоты солнца над горизонтом, облачности и скорости ветра. Ночью, в пасмурную погоду, а также при ветре 12 м/с и более поправка равна нулю.
P - Атмосферное давление - приведенное к уровню моря атмосферное давление.
Po - Атмосферное давление - измеренное на уровне метеостанции атмосферное давление.
Tmin - Минимальная температура - минимум температуры воздуха на высоте 2 м над землей.
Tmax - Максимальная температура - максимум температуры воздуха на высоте 2 м над землей.
R - Количество осадков - Количество выпавших осадков за период времени, мм. При наведении курсора мыши на число - период времени, за который выпало указанное количество осадков.
R24 - Количество осадков - Количество выпавших осадков за 24 часа, мм.
S - Снежный покров - Высота снежного покрова, см. При наведении курсора мыши на число - состояние снежного покрова и степень покрытия местности в баллах.